Location: Nairn
(57.5833°N, 3.8667°W)
Time: 23:08:46
(UTC+00:00)

Transit 2A Rocket - Visible Passes

Search period start: 25 November 2020 00:00
Search period end: 05 December 2020 00:00
Orbit: 588 x 914 km, 66.7° (Epoch: 25 November)

Date Brightness Start Highest point End Pass type
(mag) Time Alt. Az. Time Alt. Az. Time Alt. Az.
25 Nov 7.3 03:04:54 21° ENE 03:04:54 21° ENE 03:07:01 10° NE visible
25 Nov 5.1 04:44:49 73° N 04:44:49 73° N 04:49:52 10° NE visible
25 Nov 5.8 06:24:45 22° WNW 06:27:44 37° NNW 06:32:35 10° NE visible
26 Nov 8.0 02:23:44 11° ENE 02:23:44 11° ENE 02:24:06 10° ENE visible
26 Nov 6.1 04:03:39 44° NE 04:03:39 44° NE 04:07:15 10° NE visible
26 Nov 5.6 05:43:34 37° WNW 05:44:51 43° NNW 05:49:53 10° NE visible
26 Nov 6.0 07:23:43 10° WNW 07:28:36 31° N 07:33:07 10° ENE visible
27 Nov 7.1 03:22:27 25° ENE 03:22:27 25° ENE 03:24:36 10° NE visible
27 Nov 5.4 05:02:21 51° NNW 05:02:21 51° NNW 05:07:14 10° NE visible
27 Nov 6.0 06:42:16 17° WNW 06:45:39 32° N 06:50:15 10° ENE visible
28 Nov 7.8 02:41:11 14° ENE 02:41:11 14° ENE 02:41:54 10° NE visible
28 Nov 6.0 04:21:05 42° NNE 04:21:05 42° NNE 04:24:37 10° NE visible
28 Nov 5.9 06:01:00 28° NW 06:02:43 34° NNW 06:07:26 10° NE visible
29 Nov 6.9 03:39:47 26° NE 03:39:47 26° NE 03:42:01 10° NE visible
29 Nov 5.7 05:19:42 38° NNW 05:19:50 38° NNW 05:24:42 10° NE visible
29 Nov 6.0 06:59:36 14° NW 07:03:37 31° N 07:08:04 10° ENE visible
30 Nov 7.7 02:58:28 15° NE 02:58:28 15° NE 02:59:24 10° NE visible
30 Nov 6.1 04:38:22 37° NNE 04:38:22 37° NNE 04:42:01 10° NE visible
30 Nov 6.1 06:18:17 22° NW 06:20:40 31° N 06:25:09 10° ENE visible
01 Dec 6.8 03:57:01 27° NE 03:57:01 27° NE 03:59:23 10° NE visible
01 Dec 6.0 05:36:55 31° NNW 05:37:43 32° N 05:42:18 10° NE visible
01 Dec 5.9 07:16:50 11° NW 07:21:33 35° NNE 07:26:01 10° E visible
02 Dec 7.5 03:15:39 17° NE 03:15:39 17° NE 03:16:46 10° NE visible
02 Dec 6.1 04:55:33 33° N 04:55:33 33° N 04:59:31 10° NE visible
02 Dec 6.0 06:35:27 18° NW 06:38:37 32° N 06:43:02 10° ENE visible
03 Dec 6.7 04:14:10 27° NNE 04:14:10 27° NNE 04:16:48 10° NE visible
03 Dec 6.1 05:54:04 26° NNW 05:55:40 30° N 06:00:05 10° ENE visible
03 Dec 5.5 07:34:18 10° NW 07:39:21 46° NNE 07:43:56 10° ESE visible
04 Dec 7.4 03:32:47 18° NE 03:32:47 18° NE 03:34:09 10° NE visible
04 Dec 6.1 05:12:41 31° N 05:12:43 31° N 05:17:11 10° ENE visible
04 Dec 5.8 06:52:35 15° NW 06:56:30 38° NNE 07:01:00 10° E visible
